[[{"header":{"parameterUnit":"m.s-1","parameterCategory":1,"la1":30.2991,"la2":30.254,"lo1":-89.0895,"lo2":-89.0444,"dx":0.0017,"dy":0.0017,"nx":28,"ny":28,"refTime":"2022-12-30T15:00:00:Z","depth":0,"parameterNumber":2,"parameterNumberName":"U-component_of_WINDS"},"data":[0,0,0,0,0,0,0,0,0,0,0,0,0,0,0,0,0,0,0,0,0,0,0,0,0,0,0,0,0,0,0,0,0,0,0,0,0,0,0,0,0,0,0,0,0,0,0,0,0,0,0,0,0,0,0,0,0,0,1.657,1.657,0,1.6575,1.6575,1.6575,1.656,1.656,1.6559,1.6559,1.6565,1.6566,1.6566,0,0,0,0,0,0,0,0,0,0,0,0,0,1.6549,1.6549,1.657,1.657,1.657,1.6575,1.6575,1.6575,1.656,1.656,1.6559,1.6559,1.6565,1.6566,1.6566,0,0,0,0,0,0,0,0,0,0,0,0,0,1.6557,1.655,1.657,1.6563,1.6563,1.6575,1.6575,1.6575,1.656,1.656,1.6559,1.6558,1.6565,1.6565,1.6566,1.6586,0,0,1.6569,1.6569,0,0,0,0,0,0,0,0,1.6556,1.6557,1.6564,1.6564,1.6563,1.6566,1.657,1.6579,1.6561,1.6561,1.6559,1.6558,1.6566,1.6567,1.6569,1.6586,1.6586,1.6569,1.657,1.657,1.657,0,0,0,0,0,0,0,1.6556,1.6557,1.6572,1.6564,1.6564,1.6561,1.6561,1.6571,1.6568,1.6561,1.656,1.6561,1.6566,1.6568,1.6569,1.6586,1.6569,1.657,1.657,1.6571,1.6619,1.662,0,0,0,0,0,0,1.6556,1.6557,1.6572,1.6572,1.6558,1.6561,1.6562,1.6566,1.6567,1.6567,1.6562,1.656,1.6567,1.6568,1.6569,1.6592,1.657,1.6571,1.6571,1.6619,1.6619,1.662,0,0,0,0,0,0,1.6555,1.6557,1.6572,1.6564,1.6566,1.6563,1.6567,1.6566,1.6569,1.6568,1.6567,1.6565,1.6567,1.6568,1.6582,1.6592,1.6571,1.6572,1.6618,1.6619,1.662,1.6637,0,0,0,0,0,0,1.6555,1.6557,1.6564,1.6564,1.6566,1.6583,1.6568,1.6567,1.6571,1.6569,1.6571,1.657,1.6566,1.658,1.6583,1.6593,1.6573,1.6617,1.6618,1.6619,1.6636,1.6639,1.6641,0,0,0,0,0,1.6554,1.6569,1.6564,1.6566,1.6574,1.6584,1.6585,1.658,1.6572,1.6579,1.6578,1.657,1.6591,1.6582,1.6584,1.6595,1.6616,1.6618,1.6619,1.6634,1.6638,1.6641,0,0,0,0,0,0,1.657,1.6569,1.6564,1.6579,1.6582,1.6581,1.659,1.6584,1.6589,1.6587,1.6581,1.6582,1.6597,1.6597,1.6587,1.6614,1.6602,1.6604,1.6613,1.6616,1.6619,1.6618,1.6573,0,0,0,0,0,1.6575,1.6582,1.6581,1.6595,1.6596,1.6593,1.6597,1.6593,1.6595,1.6597,1.6597,1.66,1.6607,1.6612,1.6618,1.6636,1.6636,1.6645,1.6648,1.665,1.6652,1.6661,1.6665,1.6626,1.6626,1.6626,0,0,1.6586,1.6586,1.6591,1.6598,1.6599,1.6607,1.6594,1.6603,1.6609,1.6598,1.661,1.6611,1.6614,1.663,1.6637,1.6631,1.6663,1.6652,1.6654,1.6654,1.6663,1.6667,1.667,1.6627,1.6627,1.6627,0,0,1.6609,1.661,1.6621,1.6624,1.6626,1.6624,1.6627,1.6628,1.6628,1.664,1.6632,1.664,1.6652,1.6655,1.6658,1.6684,1.6677,1.6686,1.6701,1.671,1.6714,1.6716,1.6725,1.6729,1.6688,1.6688,1.6688,0,1.6622,1.6633,1.6628,1.6638,1.6641,1.6632,1.6644,1.6646,1.6651,1.6654,1.6647,1.6663,1.6664,1.6681,1.6687,1.669,1.6693,1.6685,1.6713,1.6716,1.6719,1.6727,1.6731,1.6689,1.6689,1.6689,1.6689,0,1.6649,1.6657,1.6666,1.6671,1.6676,1.6686,1.6683,1.6689,1.6685,1.6684,1.6697,1.6699,1.6705,1.6709,1.6706,1.6725,1.6721,1.6714,1.6702,1.6723,1.6731,1.6735,1.6691,1.669,1.669,1.669,0,0,1.6681,1.6683,1.6687,1.6689,1.6692,1.6698,1.6709,1.6716,1.672,1.6725,1.6733,1.6745,1.6738,1.6742,1.6739,1.6747,1.6768,1.6739,1.6739,1.6744,1.6789,1.6794,1.6798,1.6764,1.6764,1.6765,1.6789,0,1.6703,1.6721,1.6717,1.6735,1.6743,1.6735,1.6744,1.6748,1.6747,1.6754,1.6754,1.6762,1.6753,1.6755,1.6763,1.6763,1.6776,1.6762,1.6772,1.6772,1.677,1.6802,1.6807,1.683,1.6792,1.6793,1.6793,0,1.6732,1.6737,1.6755,1.6758,1.6761,1.6769,1.6775,1.6782,1.6786,1.6785,1.679,1.6785,1.6796,1.6785,1.68,1.679,1.6795,1.6796,1.6796,1.6796,1.6783,1.6802,1.6837,1.684,1.6798,1.6797,1.6797,0,1.6753,1.6764,1.6777,1.6779,1.6782,1.6788,1.679,1.6793,1.6798,1.6803,1.6806,1.6813,1.6817,1.6823,1.6821,1.6813,1.6837,1.6825,1.6837,1.6837,1.6841,1.6841,1.6876,1.6845,1.6845,1.6845,1.6845,0,1.6778,1.6789,1.6786,1.6794,1.6807,1.6803,1.6816,1.6817,1.682,1.6828,1.6822,1.683,1.6827,1.6835,1.6833,1.6846,1.6848,1.6848,1.6847,1.6848,1.6848,1.685,1.6848,1.6846,1.6846,1.6846,1.6845,0,1.6802,1.6801,1.6814,1.6816,1.6817,1.6827,1.6829,1.6836,1.6836,1.6846,1.6848,1.6848,1.6857,1.6856,1.6866,1.6865,1.6881,1.6879,1.688,1.6879,1.689,1.6889,1.6927,1.6932,1.6899,1.6899,1.6899,0,1.6818,1.6826,1.683,1.6835,1.6837,1.6845,1.6849,1.6847,1.6852,1.6858,1.6864,1.6873,1.6879,1.6894,1.6895,1.6903,1.69,1.6914,1.6902,1.6902,1.69,1.6899,1.69,1.6915,1.6916,1.6916,1.6916,0,1.6845,1.6845,1.6851,1.6858,1.6864,1.6869,1.6874,1.6878,1.6876,1.6883,1.6892,1.6897,1.6907,1.6916,1.6923,1.6926,1.6921,1.692,1.6923,1.6924,1.6923,1.6923,1.6885,1.6919,1.6919,1.6919,1.6919,1.6918,1.6865,1.6873,1.6877,1.6884,1.6888,1.6893,1.69,1.6901,1.6908,1.6916,1.6915,1.6925,1.693,1.6939,1.6943,1.6951,1.6946,1.6951,1.6952,1.6952,1.6954,1.6923,1.6953,1.6952,1.6952,1.6952,1.6952,0,1.6892,1.6894,1.6902,1.6909,1.6915,1.6911,1.6916,1.6922,1.6931,1.6936,1.6942,1.6953,1.6962,1.6964,1.6972,1.6979,1.6977,1.6981,1.698,1.6981,1.6958,1.6954,1.6982,1.6982,1.6982,1.6982,1.6982,1.6982,1.6907,1.6919,1.6919,1.6933,1.6936,1.6946,1.6949,1.6954,1.6958,1.697,1.6977,1.6978,1.6982,1.6991,1.6999,1.6999,1.7003,1.7008,1.7007,1.6985,1.6982,1.6979,1.6976,1.7008,1.7008,1.7029,1.7029,1.703]},{"header":{"parameterUnit":"m.s-1","parameterCategory":1,"la1":30.2991,"la2":30.254,"lo1":-89.0895,"lo2":-89.0444,"dx":0.0017,"dy":0.0017,"nx":28,"ny":28,"refTime":"2022-12-30T15:00:00:Z","depth":0,"parameterNumber":3,"parameterNumberName":"V-component_of_WINDS"},"data":[0,0,0,0,0,0,0,0,0,0,0,0,0,0,0,0,0,0,0,0,0,0,0,0,0,0,0,0,0,0,0,0,0,0,0,0,0,0,0,0,0,0,0,0,0,0,0,0,0,0,0,0,0,0,0,0,0,0,0.3766,0.3766,0,0.3807,0.3808,0.3808,0.3854,0.3855,0.3855,0.3856,0.3895,0.3896,0.3896,0,0,0,0,0,0,0,0,0,0,0,0,0,0.3722,0.3722,0.3765,0.3766,0.3767,0.3807,0.3808,0.3809,0.3854,0.3855,0.3855,0.3856,0.3895,0.3896,0.3896,0,0,0,0,0,0,0,0,0,0,0,0,0,0.375,0.3722,0.3765,0.3794,0.3797,0.3807,0.3808,0.3809,0.3854,0.3855,0.3856,0.3857,0.3895,0.3896,0.3896,0.3881,0,0,0.3898,0.3899,0,0,0,0,0,0,0,0,0.3748,0.3751,0.3789,0.3792,0.3796,0.3827,0.3807,0.3833,0.3853,0.3832,0.3856,0.3857,0.3871,0.3874,0.388,0.3882,0.3884,0.3898,0.3899,0.3899,0.3899,0,0,0,0,0,0,0,0.3746,0.375,0.3782,0.379,0.3794,0.3804,0.3809,0.3812,0.3846,0.3834,0.3837,0.3842,0.3873,0.3879,0.3881,0.3885,0.3898,0.3899,0.3899,0.39,0.3876,0.3875,0,0,0,0,0,0,0.374,0.3748,0.3781,0.3783,0.3774,0.3804,0.381,0.3816,0.3846,0.3851,0.3841,0.3844,0.3877,0.388,0.3883,0.3866,0.3899,0.39,0.39,0.3877,0.3876,0.3875,0,0,0,0,0,0,0.3739,0.3743,0.3779,0.3766,0.3772,0.3804,0.381,0.3816,0.3822,0.3851,0.3857,0.3841,0.3878,0.3882,0.3881,0.3868,0.39,0.3901,0.3879,0.3877,0.3876,0.3832,0,0,0,0,0,0,0.3738,0.3742,0.3737,0.3766,0.3772,0.3777,0.3809,0.3816,0.3823,0.3827,0.3852,0.3858,0.3879,0.388,0.3882,0.3869,0.3901,0.388,0.3878,0.3876,0.3835,0.383,0.3825,0,0,0,0,0,0.3736,0.3722,0.3736,0.374,0.3767,0.3777,0.378,0.3806,0.3822,0.3817,0.3836,0.3857,0.3869,0.3879,0.3882,0.3869,0.3881,0.3878,0.3876,0.3837,0.3831,0.3825,0,0,0,0,0,0,0.369,0.3727,0.3743,0.3739,0.3754,0.3784,0.3778,0.3798,0.3809,0.3812,0.3844,0.3849,0.3844,0.3857,0.3868,0.3856,0.3878,0.3876,0.3848,0.3841,0.3836,0.3833,0.3902,0,0,0,0,0,0.3679,0.3685,0.3717,0.371,0.3717,0.3746,0.3751,0.377,0.3787,0.3794,0.3813,0.3828,0.3835,0.3839,0.3847,0.3837,0.3843,0.383,0.3825,0.3821,0.3818,0.3814,0.3808,0.3868,0.3868,0.3868,0,0,0.3657,0.3678,0.368,0.3701,0.3715,0.372,0.3751,0.3755,0.3758,0.3794,0.3795,0.3809,0.3828,0.3822,0.3821,0.3833,0.3803,0.3818,0.3814,0.3814,0.3811,0.3805,0.38,0.3866,0.3866,0.3867,0,0,0.3619,0.3636,0.3632,0.3646,0.3668,0.3688,0.3687,0.3714,0.3725,0.3727,0.3754,0.3758,0.377,0.3782,0.379,0.3757,0.3776,0.3759,0.3731,0.3726,0.3722,0.3718,0.3705,0.3701,0.3756,0.3756,0.3756,0,0.3588,0.3597,0.3627,0.3629,0.3637,0.3672,0.3667,0.3679,0.3702,0.3707,0.372,0.3736,0.3751,0.3749,0.3741,0.3746,0.3745,0.3755,0.372,0.3717,0.3713,0.3702,0.3697,0.3754,0.3754,0.3754,0.3755,0,0.3558,0.3564,0.3558,0.3581,0.3588,0.3587,0.3616,0.362,0.3638,0.3656,0.3657,0.3676,0.3689,0.369,0.3708,0.369,0.3697,0.3715,0.3738,0.3705,0.3694,0.369,0.3751,0.3751,0.3752,0.3753,0,0,0.3491,0.3532,0.3529,0.3539,0.3566,0.3571,0.3571,0.3584,0.3587,0.3602,0.3602,0.3611,0.3628,0.3637,0.3656,0.3652,0.3624,0.3671,0.3671,0.3661,0.3605,0.3591,0.3586,0.3638,0.3637,0.3637,0.3604,0,0.3458,0.3461,0.3488,0.3483,0.3488,0.3521,0.3521,0.3537,0.3554,0.356,0.3578,0.3585,0.3607,0.3612,0.361,0.3628,0.3613,0.3631,0.3637,0.3637,0.3631,0.3581,0.3566,0.3534,0.36,0.3599,0.3599,0,0.3419,0.3432,0.3428,0.3455,0.3459,0.3458,0.3473,0.3479,0.3497,0.351,0.352,0.3542,0.3543,0.3565,0.3566,0.3577,0.3582,0.3591,0.359,0.3591,0.3615,0.3579,0.3524,0.3519,0.3593,0.3593,0.3594,0,0.337,0.3387,0.3387,0.3395,0.3427,0.3426,0.3439,0.3458,0.3465,0.3477,0.3482,0.3494,0.35,0.3509,0.3533,0.3547,0.3531,0.3555,0.3541,0.354,0.3535,0.3535,0.3479,0.3539,0.3539,0.3539,0.3539,0,0.3329,0.3325,0.3365,0.3365,0.3361,0.3392,0.3387,0.3403,0.3421,0.3423,0.3452,0.3454,0.3487,0.3492,0.3511,0.3508,0.3511,0.3521,0.3526,0.3518,0.3516,0.352,0.3523,0.3538,0.3538,0.3538,0.3539,0,0.3273,0.33,0.3302,0.3333,0.334,0.3336,0.3361,0.3362,0.3381,0.3384,0.3386,0.3416,0.3423,0.3449,0.3462,0.3475,0.3467,0.3477,0.346,0.3464,0.3447,0.3448,0.3391,0.3385,0.3449,0.3449,0.3448,0,0.3245,0.3243,0.3273,0.3278,0.329,0.3297,0.3304,0.3334,0.334,0.3361,0.3359,0.3369,0.3379,0.3389,0.3411,0.3421,0.3431,0.3411,0.3433,0.3425,0.343,0.343,0.3429,0.3405,0.3405,0.3404,0.3403,0,0.3191,0.3205,0.3215,0.3229,0.3238,0.325,0.3264,0.3266,0.33,0.3305,0.3314,0.3321,0.3336,0.3345,0.3359,0.3371,0.3392,0.3396,0.3393,0.3385,0.3375,0.338,0.3447,0.3397,0.3398,0.3398,0.3399,0.3399,0.3148,0.3148,0.3169,0.3179,0.3193,0.3206,0.3208,0.3228,0.3236,0.3251,0.3268,0.3275,0.3293,0.3314,0.3325,0.333,0.3342,0.3337,0.3336,0.3334,0.333,0.3375,0.3333,0.3333,0.3333,0.3333,0.3333,0,0.3096,0.3112,0.3121,0.314,0.3148,0.3169,0.3185,0.319,0.3196,0.3212,0.3221,0.3231,0.324,0.3263,0.3274,0.3274,0.3284,0.3275,0.3275,0.3278,0.332,0.3321,0.3267,0.3267,0.3267,0.3267,0.3267,0.3267,0.3069,0.307,0.3086,0.3093,0.3109,0.3117,0.3124,0.3136,0.3149,0.3159,0.3167,0.3183,0.3201,0.3214,0.3223,0.323,0.3232,0.3221,0.323,0.3269,0.3275,0.3281,0.3282,0.3221,0.3221,0.3188,0.3187,0.3187]}]]